Weather History for Port Clinton Carl R Keller Fi, OH

Change the Weather History Date:

Sunday, April 13, 2014

  Actual Average (KTOL) Record (KTOL)
Temperature  
Mean Temperature 70 °F 48 °F  
Max Temperature 77 °F 59 °F 86 °F (1977)
Min Temperature 63 °F 38 °F 19 °F (1976)
Degree Days  
Heating Degree Days 0 17  
Month to date heating degree days 246  
Since 1 July heating degree days 5672  
Cooling Degree Days 5 0  
Month to date cooling degree days 0  
Year to date cooling degree days 0  
Growing Degree Days 20 (Base 50)    
Moisture  
Dew Point 56 °F    
Average Humidity 61    
Maximum Humidity 72    
Minimum Humidity 50    
Precipitation  
Precipitation 0.00 in 0.11 in 1.29 in (1979)
Month to date precipitation 1.37  
Year to date precipitation 7.97  
Snow  
Snow 0.00 in 0.10 in - ()
Month to date snowfall 0.9  
Since 1 July snowfall 37.1  
Snow Depth -    
Sea Level Pressure  
Sea Level Pressure 29.79 in    
Wind  
Wind Speed 11 mph (SSW)    
Max Wind Speed 21 mph    
Max Gust Speed 30 mph    
Visibility 10 miles    
Events      
T = Trace of Precipitation, MM = Missing Value Source: NWS Daily Summary

Daily Weather History Graph

Daily Weather History Graph

Search for Another Location

Airport:

Trip Planner

Search our weather history database for the weather conditions in past years. The results will help you decide how hot, cold, wet, or windy it might be!

Date:

Astronomy

Apr. 13, 2014 Rise Set
Actual Time 6:54 AM EDT 8:09 PM EDT
Civil Twilight 6:26 AM EDT 8:38 PM EDT
Nautical Twilight 5:51 AM EDT 9:12 PM EDT
Astronomical Twilight 5:15 AM EDT 9:49 PM EDT
Moon 6:45 PM EDT (4/13) 5:54 AM EDT (4/13)
Length of Visible Light 14h 12m
Length of Day
13h 14m
Waxing Gibbous, 97% of the Moon is Illuminated
Apr 13
Waxing Gibbous
Apr 15
Full
Apr 22
Last Quarter
Apr 29
New
May 6
First Quarter

Hourly Weather History & Observations

Time (EDT) Temp. Dew Point Humidity Pressure Visibility Wind Dir Wind Speed Gust Speed Precip Events Conditions
12:13 AM 64.4 °F 53.6 °F 68% 29.86 in 10.0 mi South 8.1 mph - N/A   Overcast
12:33 AM 64.4 °F 53.6 °F 68% 29.86 in 10.0 mi South 4.6 mph - N/A   Overcast
12:54 AM 64.9 °F 54.0 °F 68% 29.86 in 10.0 mi South 9.2 mph - N/A   Overcast
1:13 AM 64.4 °F 53.6 °F 68% 29.85 in 10.0 mi South 9.2 mph - N/A   Overcast
1:34 AM 64.4 °F 53.6 °F 68% 29.85 in 10.0 mi South 10.4 mph - N/A   Overcast
1:54 AM 65.8 °F 54.0 °F 65% 29.84 in 10.0 mi South 10.4 mph - N/A   Overcast
2:13 AM 66.2 °F 53.6 °F 64% 29.84 in 10.0 mi South 8.1 mph - N/A   Overcast
2:34 AM 66.2 °F 53.6 °F 64% 29.84 in 10.0 mi SSW 6.9 mph - N/A   Overcast
2:54 AM 64.9 °F 54.0 °F 68% 29.84 in 10.0 mi South 6.9 mph - N/A   Overcast
3:13 AM 64.4 °F 53.6 °F 68% 29.84 in 10.0 mi SSW 6.9 mph - N/A   Overcast
3:34 AM 64.4 °F 53.6 °F 68% 29.84 in 10.0 mi SSW 6.9 mph - N/A   Overcast
3:54 AM 63.0 °F 54.0 °F 72% 29.83 in 10.0 mi South 8.1 mph - N/A   Mostly Cloudy
4:13 AM 64.4 °F 53.6 °F 68% 29.82 in 10.0 mi SSW 9.2 mph - N/A   Partly Cloudy
4:34 AM 64.4 °F 53.6 °F 68% 29.82 in 10.0 mi SSW 10.4 mph - N/A   Clear
4:53 AM 64.9 °F 52.9 °F 65% 29.82 in 10.0 mi SSW 11.5 mph - N/A   Clear
5:13 AM 64.4 °F 53.6 °F 68% 29.82 in 10.0 mi SSW 12.7 mph - N/A   Scattered Clouds
5:34 AM 66.2 °F 53.6 °F 64% 29.82 in 10.0 mi SSW 13.8 mph - N/A   Mostly Cloudy
5:53 AM 65.8 °F 52.9 °F 63% 29.82 in 10.0 mi SSW 12.7 mph - N/A   Mostly Cloudy
6:13 AM 66.2 °F 53.6 °F 64% 29.81 in 10.0 mi SSW 13.8 mph - N/A   Scattered Clouds
6:34 AM 66.2 °F 53.6 °F 64% 29.81 in 10.0 mi SSW 12.7 mph - N/A   Partly Cloudy
6:53 AM 64.9 °F 52.9 °F 65% 29.81 in 10.0 mi SSW 15.0 mph - N/A   Clear
7:13 AM 64.4 °F 53.6 °F 68% 29.81 in 10.0 mi SSW 12.7 mph - N/A   Clear
7:34 AM 66.2 °F 53.6 °F 64% 29.82 in 10.0 mi SSW 12.7 mph - N/A   Scattered Clouds
7:53 AM 65.8 °F 54.0 °F 65% 29.83 in 10.0 mi SSW 10.4 mph - N/A   Mostly Cloudy
8:13 AM 66.2 °F 53.6 °F 64% 29.82 in 10.0 mi SSW 11.5 mph - N/A   Overcast
8:33 AM 66.2 °F 55.4 °F 68% 29.83 in 10.0 mi SW 9.2 mph - N/A   Overcast
8:53 AM 68.0 °F 54.9 °F 63% 29.83 in 10.0 mi SSW 12.7 mph - N/A   Overcast
9:13 AM 68.0 °F 55.4 °F 64% 29.83 in 10.0 mi SSW 12.7 mph - N/A   Overcast
9:33 AM 68.0 °F 55.4 °F 64% 29.82 in 10.0 mi SSW 15.0 mph - N/A   Overcast
9:54 AM 68.0 °F 54.9 °F 63% 29.81 in 10.0 mi SSW 13.8 mph - N/A   Mostly Cloudy
10:13 AM 69.8 °F 55.4 °F 60% 29.81 in 10.0 mi SW 18.4 mph - N/A   Partly Cloudy
10:33 AM 71.6 °F 57.2 °F 60% 29.81 in 10.0 mi SW 19.6 mph - N/A   Mostly Cloudy
10:54 AM 72.0 °F 57.9 °F 61% 29.82 in 10.0 mi SW 19.6 mph - N/A   Overcast
11:33 AM 71.6 °F 57.2 °F 60% 29.82 in 10.0 mi SW 20.7 mph - N/A   Mostly Cloudy
11:54 AM 73.4 °F 59.0 °F 61% 29.81 in 10.0 mi SW 19.6 mph - N/A   Mostly Cloudy
12:13 PM 73.4 °F 59.0 °F 61% 29.81 in 10.0 mi SW 17.3 mph - N/A   Overcast
12:34 PM 73.4 °F 59.0 °F 61% 29.80 in 10.0 mi SW 19.6 mph - N/A   Overcast
12:53 PM 73.4 °F 59.0 °F 61% 29.80 in 10.0 mi SW 20.7 mph - N/A   Mostly Cloudy
1:13 PM 75.2 °F 60.8 °F 61% 29.80 in 10.0 mi SW 15.0 mph - N/A   Overcast
1:34 PM 75.2 °F 60.8 °F 61% 29.80 in 10.0 mi SW 20.7 mph - N/A   Overcast
1:53 PM 75.2 °F 60.8 °F 61% 29.80 in 10.0 mi SW 17.3 mph 29.9 mph N/A   Mostly Cloudy
2:13 PM 77.0 °F 60.8 °F 57% 29.80 in 10.0 mi SW 16.1 mph - N/A   Scattered Clouds
2:33 PM 75.2 °F 60.8 °F 61% 29.80 in 10.0 mi SW 19.6 mph - N/A   Mostly Cloudy
2:53 PM 77.0 °F 60.8 °F 57% 29.80 in 10.0 mi SW 18.4 mph - N/A   Mostly Cloudy
3:14 PM 77.0 °F 60.8 °F 57% 29.79 in 10.0 mi SW 18.4 mph - N/A   Scattered Clouds
3:33 PM 77.0 °F 60.8 °F 57% 29.79 in 10.0 mi SW 13.8 mph - N/A   Scattered Clouds
3:53 PM 77.0 °F 59.0 °F 54% 29.78 in 10.0 mi SW 15.0 mph - N/A   Mostly Cloudy
4:14 PM 77.0 °F 59.0 °F 54% 29.77 in 10.0 mi SW 10.4 mph - N/A   Scattered Clouds
4:33 PM 77.0 °F 57.2 °F 50% 29.76 in 10.0 mi SW 17.3 mph - N/A   Clear
4:54 PM 77.9 °F 59.0 °F 52% 29.77 in 10.0 mi SW 11.5 mph - N/A   Partly Cloudy
5:14 PM 77.0 °F 57.2 °F 50% 29.76 in 10.0 mi SW 16.1 mph - N/A   Scattered Clouds
5:33 PM 75.2 °F 57.2 °F 53% 29.76 in 10.0 mi SW 15.0 mph - N/A   Clear
5:54 PM 75.9 °F 56.8 °F 51% 29.76 in 10.0 mi SSW 12.7 mph - N/A   Clear
6:14 PM 77.0 °F 57.2 °F 50% 29.75 in 10.0 mi SW 11.5 mph - N/A   Clear
6:33 PM 75.2 °F 57.2 °F 53% 29.75 in 10.0 mi SW 10.4 mph - N/A   Clear
6:54 PM 77.0 °F 56.8 °F 50% 29.75 in 10.0 mi SW 9.2 mph - N/A   Clear
7:13 PM 75.2 °F 57.2 °F 53% 29.75 in 10.0 mi SSW 10.4 mph - N/A   Clear
7:33 PM 75.2 °F 55.4 °F 50% 29.75 in 10.0 mi SSW 9.2 mph - N/A   Clear
7:54 PM 73.9 °F 54.9 °F 51% 29.74 in 10.0 mi South 8.1 mph - N/A   Clear
8:13 PM 69.8 °F 55.4 °F 60% 29.74 in 10.0 mi South 9.2 mph - N/A   Clear
8:33 PM 69.8 °F 55.4 °F 60% 29.73 in 10.0 mi South 9.2 mph - N/A   Clear
8:54 PM 68.9 °F 55.9 °F 63% 29.73 in 10.0 mi South 9.2 mph - N/A   Clear
9:14 PM 69.8 °F 55.4 °F 60% 29.72 in 10.0 mi South 8.1 mph - N/A   Clear
9:33 PM 69.8 °F 55.4 °F 60% 29.72 in 10.0 mi South 6.9 mph - N/A   Clear
9:54 PM 68.0 °F 54.9 °F 63% 29.71 in 10.0 mi South 8.1 mph - N/A   Clear
10:13 PM 69.8 °F 55.4 °F 60% 29.71 in 10.0 mi South 9.2 mph - N/A   Clear
10:33 PM 68.0 °F 55.4 °F 64% 29.71 in 10.0 mi South 9.2 mph - N/A   Clear
10:54 PM 68.9 °F 54.0 °F 59% 29.70 in 10.0 mi South 11.5 mph - N/A   Clear
11:13 PM 69.8 °F 53.6 °F 56% 29.69 in 10.0 mi South 11.5 mph - N/A   Clear
11:33 PM 69.8 °F 51.8 °F 53% 29.68 in 10.0 mi South 9.2 mph - N/A   Clear
11:54 PM 68.0 °F 50.9 °F 54% 29.68 in 10.0 mi SSW 9.2 mph - N/A   Clear